[ hide orbit diagram ]
For accurate long-term ephemerides, please instead use our Horizons system.This orbit viewer was implemented using two-body methods, and hence should not be used for determining accurate long-term trajectories (over several years or decades) or planetary encounter circumstances.
Orbital Elements at Epoch 2459000.5 (2020-May-31.0) TDB
Reference: JPL 16 (heliocentric ecliptic J2000)
Element | Value | Uncertainty (1-sigma) | Units |
e | .0400497706582164 | 5.6109e-08 | |
a | 2.748984700048681 | 2.3063e-08 | au |
q | 2.638888493268786 | 1.64e-07 | au |
i | 6.640735188251425 | 4.7923e-06 | deg |
node | 76.71190323599782 | 4.8887e-05 | deg |
peri | 323.4714297759296 | 8.3104e-05 | deg |
M | 294.0262533055533 | 6.5917e-05 | deg |
tp | 2459305.588304121298 (2021-Apr-01.08830412) | 0.00030444 | TDB |
period | 1664.780234361198 4.56 | 2.095e-05 5.736e-08 | d yr |
n | .2162447586591737 | 2.7213e-09 | deg/d |
Q | 2.859080906828577 | 2.3987e-08 | au |
|
| | Orbit Determination Parameters
Additional Information
|
[ show covariance matrix ]
Physical Parameter Table
Parameter |
Symbol |
Value |
Units |
Sigma |
Reference |
Notes |
absolute magnitude |
H |
16.6 |
|
n/a |
MPO437487 |
|
|
351432 (2005 GO150) Discovered 2005-Apr-11 by Spacewatch at Kitt Peak |
Reference: 20130127/Numbers.arc | Last Updated: 2013-01-31 |
|
[ show close-approach data ]
|